W8SZ Weather Reports


Display with metric or nautical units.
time (UTC)temp
F
wind
direction
speed
MPH
gust
MPH
rain 1hr
in
rain 24hr
in
rain mn
in
humidity
%
barometer
mb
20170723064921 65 53 2.0 4.0 0.00 0.02 0.00 100 1008.2
20170723064432 65 54 0.0 5.0 0.00 0.02 0.00 100 1008.0
20170723063922 65 53 1.0 6.0 0.00 0.02 0.00 100 1007.9
20170723063445 65 53 2.0 6.0 0.00 0.02 0.00 100 1008.1
20170723062920 65 53 2.0 6.0 0.00 0.02 0.00 100 1008.8
20170723062430 65 53 3.0 5.0 0.00 0.02 0.00 100 1008.5
20170723061920 65 53 1.0 5.0 0.00 0.02 0.00 100 1008.3
20170723061419 65 53 1.0 6.0 0.00 0.02 0.00 100 1008.2
20170723060927 65 53 4.0 6.0 0.00 0.02 0.00 100 1008.5
20170723060417 65 53 2.0 4.0 0.00 0.02 0.00 100 1008.7
20170723055941 65 53 1.0 4.0 0.00 0.02 0.00 100 1009.0
20170723055413 65 53 1.0 2.0 0.00 0.02 0.00 100 1008.7
20170723054906 65 53 0.0 1.0 0.00 0.02 0.00 100 1008.8
20170723054419 65 53 0.0 1.0 0.00 0.02 0.00 100 1009.0
20170723053911 65 53 0.0 1.0 0.00 0.02 0.00 100 1008.8
20170723053422 65 53 0.0 2.0 0.00 0.02 0.00 100 1008.8
20170723052931 66 53 0.0 2.0 0.00 0.02 0.00 100 1008.7
20170723052410 66 53 0.0 2.0 0.00 0.02 0.00 100 1008.6
20170723051915 66 53 1.0 3.0 0.00 0.02 0.00 100 1008.4
20170723051423 66 53 0.0 3.0 0.00 0.02 0.00 100 1008.5
20170723050913 66 53 1.0 2.0 0.00 0.02 0.00 100 1009.0
20170723050425 66 53 0.0 2.0 0.00 0.02 0.00 100 1009.3
20170723045907 66 54 1.0 6.0 0.00 0.02 0.00 100 1008.9
20170723045421 67 53 2.0 7.0 0.00 0.02 0.00 100 1008.4
20170723044913 67 54 6.0 7.0 0.00 0.02 0.00 100 1008.1
20170723044415 67 54 5.0 8.0 0.00 0.02 0.00 100 1008.6
20170723043901 67 55 6.0 8.0 0.00 0.02 0.00 100 1008.8
20170723043415 67 79 5.0 7.0 0.00 0.02 0.00 100 1008.8
20170723042928 67 79 5.0 6.0 0.00 0.02 0.00 100 1008.5
20170723042410 67 79 5.0 7.0 0.00 0.02 0.00 100 1008.7
20170723041906 67 79 5.0 7.0 0.00 0.02 0.00 100 1008.8
20170723041414 67 79 5.0 6.0 0.00 0.02 0.00 100 1008.8
20170723040923 67 79 3.0 5.0 0.00 0.02 0.00 100 1008.8
20170723040429 67 79 4.0 5.0 0.00 0.02 0.00 100 1008.8
20170723035901 67 79 3.0 5.0 0.00 0.02 0.02 100 1008.6
20170723035411 67 79 3.0 5.0 0.00 0.02 0.02 100 1008.8
20170723034902 67 79 4.0 5.0 0.00 0.02 0.02 100 1009.0
20170723034358 67 79 4.0 5.0 0.00 0.02 0.02 100 1009.0
20170723033909 67 79 4.0 5.0 0.00 0.02 0.02 100 1009.4
20170723033420 67 79 3.0 5.0 0.00 0.02 0.02 100 1009.2
20170723032914 67 79 3.0 5.0 0.00 0.02 0.02 100 1009.0
20170723032414 67 79 4.0 5.0 0.00 0.02 0.02 100 1008.9
20170723031901 67 79 4.0 6.0 0.00 0.02 0.02 100 1008.7
20170723031412 67 79 5.0 7.0 0.00 0.02 0.02 100 1009.5
20170723030901 67 79 6.0 8.0 0.00 0.02 0.02 100 1008.7
20170723030415 67 81 6.0 10.0 0.00 0.02 0.02 100 1009.0
20170723025859 67 83 8.0 10.0 0.00 0.02 0.02 100 1008.9
20170723025405 67 72 8.0 9.0 0.00 0.02 0.02 100 1009.1
20170723024910 67 73 8.0 9.0 0.00 0.02 0.02 100 1009.6
20170723024354 67 70 8.0 11.0 0.00 0.02 0.02 100 1008.9
20170723023907 67 76 8.0 11.0 0.00 0.02 0.02 100 1009.1
20170723023420 67 74 8.0 10.0 0.00 0.02 0.02 100 1009.2
20170723022901 67 62 5.0 8.0 0.00 0.02 0.02 100 1009.7
20170723022352 67 62 6.0 7.0 0.00 0.02 0.02 100 1009.5
20170723021901 67 62 5.0 8.0 0.00 0.02 0.02 100 1009.1
20170723021408 67 62 5.0 8.0 0.00 0.02 0.02 100 1009.3
20170723020916 67 63 6.0 8.0 0.00 0.02 0.02 100 1008.9
20170723020401 67 63 6.0 8.0 0.00 0.02 0.02 100 1009.1
20170723015902 67 63 6.0 8.0 0.00 0.02 0.02 100 1009.0
20170723015350 67 63 5.0 6.0 0.00 0.02 0.02 100 1009.2
20170723014845 67 63 3.0 5.0 0.00 0.02 0.02 100 1009.2
20170723014400 67 63 3.0 5.0 0.00 0.02 0.02 100 1009.1
20170723013855 67 63 4.0 5.0 0.00 0.02 0.02 100 1009.8
20170723013416 67 64 3.0 5.0 0.00 0.02 0.02 100 1009.1
20170723012854 67 64 3.0 5.0 0.00 0.02 0.02 100 1009.2
20170723012342 67 64 4.0 5.0 0.00 0.02 0.02 100 1009.2
20170723011856 67 63 2.0 4.0 0.00 0.02 0.02 100 1009.8
20170723011349 67 64 2.0 3.0 0.00 0.02 0.02 100 1009.0
20170723010844 67 63 0.0 3.0 0.00 0.02 0.02 100 1008.7
20170723010359 67 63 0.0 5.0 0.00 0.02 0.02 100 1008.8
20170723005858 67 63 2.0 5.0 0.00 0.02 0.02 100 1008.7
20170723005404 67 63 2.0 6.0 0.00 0.02 0.02 100 1009.1
20170723004851 67 64 4.0 6.0 0.00 0.02 0.02 100 1009.0
20170723004401 67 64 4.0 6.0 0.00 0.02 0.02 100 1008.5
20170723003850 67 64 5.0 6.0 0.00 0.02 0.02 100 1008.5
20170723003403 67 64 4.0 7.0 0.00 0.02 0.02 100 1008.8
20170723002846 67 64 5.0 7.0 0.00 0.02 0.02 100 1008.8
20170723002358 67 63 5.0 7.0 0.00 0.02 0.02 100 1008.3
20170723001852 67 64 4.0 7.0 0.00 0.02 0.02 100 1008.5
20170723001356 67 63 5.0 7.0 0.00 0.02 0.02 100 1008.3
20170723000843 67 63 5.0 7.0 0.00 0.02 0.02 100 1009.2
20170723000355 67 64 6.0 7.0 0.00 0.02 0.02 100 1008.4
20170722235856 67 65 5.0 7.0 0.00 0.02 0.02 100 1008.1
20170722235349 67 65 5.0 7.0 0.00 0.02 0.02 100 1008.1
20170722234844 67 65 5.0 6.0 0.00 0.02 0.02 100 1008.8
20170722234355 67 65 5.0 6.0 0.00 0.02 0.02 100 1008.7
20170722233847 67 65 5.0 7.0 0.00 0.02 0.02 100 1008.5
20170722233406 67 65 6.0 7.0 0.00 0.02 0.02 100 1008.5
20170722232900 67 66 6.0 7.0 0.00 0.02 0.02 100 1008.6
20170722232345 67 66 4.0 8.0 0.00 0.02 0.02 100 1008.8
20170722231838 68 66 5.0 8.0 0.00 0.02 0.02 100 1008.8
20170722231332 68 67 6.0 8.0 0.00 0.02 0.02 100 1008.7
20170722230846 68 68 6.0 8.0 0.00 0.02 0.02 100 1009.0
20170722230359 68 68 6.0 8.0 0.00 0.02 0.02 100 1008.8
20170722225841 68 137 5.0 7.0 0.00 0.02 0.02 100 1009.2
20170722225350 68 137 6.0 7.0 0.00 0.02 0.02 100 1009.0
20170722224836 68 137 5.0 7.0 0.00 0.02 0.02 100 1008.4
20170722224347 68 149 5.0 6.0 0.00 0.02 0.02 100 1008.4
20170722223839 68 162 3.0 5.0 0.00 0.02 0.02 100 1008.5
20170722223353 68 163 2.0 4.0 0.00 0.02 0.02 100 1008.5
20170722222836 68 163 3.0 4.0 0.00 0.02 0.02 100 1008.7
20170722222345 68 163 3.0 4.0 0.00 0.02 0.02 100 1008.9
20170722221833 68 163 3.0 4.0 0.00 0.02 0.02 100 1008.5
20170722221344 68 163 2.0 4.0 0.00 0.02 0.02 100 1008.6
20170722220833 68 163 2.0 3.0 0.00 0.02 0.02 100 1008.6
20170722220344 68 163 2.0 3.0 0.00 0.02 0.02 100 1008.8
20170722215826 68 163 2.0 3.0 0.00 0.02 0.02 100 1009.2
20170722215342 68 163 0.0 0.0 0.00 0.02 0.02 100 1008.4
20170722214836 68 163 0.0 1.0 0.00 0.02 0.02 100 1008.9
20170722214345 68 163 0.0 2.0 0.00 0.02 0.02 100 1008.6
20170722213848 68 163 0.0 2.0 0.00 0.02 0.02 100 1008.3
20170722213356 68 163 1.0 2.0 0.00 0.02 0.02 100 1008.9
20170722212835 68 163 1.0 3.0 0.00 0.02 0.02 100 1009.0
20170722212328 68 163 1.0 3.0 0.00 0.02 0.02 100 1008.8
20170722211837 68 163 1.0 3.0 0.00 0.02 0.02 100 1008.3
20170722211331 68 163 0.0 2.0 0.00 0.02 0.02 100 1008.3
20170722210842 68 163 1.0 2.0 0.00 0.02 0.02 100 1008.2
20170722210353 68 163 0.0 3.0 0.00 0.02 0.02 100 1008.7
20170722205850 68 163 1.0 4.0 0.00 0.02 0.02 100 1008.3
20170722205339 68 163 1.0 6.0 0.00 0.02 0.02 100 1008.4
20170722204830 68 163 3.0 6.0 0.00 0.02 0.02 100 1008.4
20170722204342 68 163 4.0 6.0 0.00 0.02 0.02 100 1008.5
20170722203833 68 163 4.0 5.0 0.00 0.02 0.02 100 1008.8
20170722203348 68 163 2.0 6.0 0.00 0.02 0.02 100 1010.4
20170722202832 68 163 4.0 8.0 0.00 0.02 0.02 100 1008.1
20170722202340 68 162 6.0 10.0 0.00 0.02 0.02 100 1008.8
20170722201846 69 160 7.0 10.0 0.00 0.02 0.02 100 1007.8
20170722201334 69 163 8.0 11.0 0.00 0.02 0.02 100 1008.0
20170722200843 69 162 9.0 11.0 0.00 0.02 0.02 100 1007.9
20170722200355 69 157 8.0 10.0 0.00 0.02 0.02 100 1008.2
20170722195837 69 155 8.0 10.0 0.00 0.02 0.02 100 1007.9
20170722195331 69 155 7.0 9.0 0.00 0.02 0.02 100 1007.9
20170722194842 69 154 6.0 8.0 0.00 0.02 0.02 100 1007.8
20170722194335 69 154 6.0 8.0 0.00 0.02 0.02 100 1008.7
20170722193837 69 154 4.0 6.0 0.00 0.02 0.02 100 1008.4
20170722193348 69 154 4.0 6.0 0.00 0.02 0.02 100 1008.5
20170722192848 69 154 4.0 6.0 0.00 0.02 0.02 100 1008.2
20170722192338 69 154 4.0 6.0 0.00 0.02 0.02 100 1008.2
20170722191829 69 154 4.0 6.0 0.00 0.02 0.02 100 1008.3
20170722191344 69 154 4.0 6.0 0.00 0.02 0.02 100 1009.0
20170722190839 69 154 6.0 7.0 0.00 0.02 0.02 100 1008.6
20170722190350 69 154 6.0 7.0 0.00 0.02 0.02 100 1009.2
20170722185830 68 156 6.0 9.0 0.00 0.02 0.02 100 1008.5
20170722185340 68 157 6.0 10.0 0.00 0.02 0.02 100 1009.4
20170722184830 68 159 9.0 10.0 0.01 0.02 0.02 100 1009.5
20170722184343 68 163 7.0 11.0 0.02 0.02 0.02 100 1009.5
20170722183836 68 156 9.0 11.0 0.02 0.02 0.02 100 1008.8
20170722183351 68 162 7.0 10.0 0.02 0.02 0.02 100 1009.4
20170722182834 68 161 7.0 11.0 0.02 0.02 0.02 100 1009.0
20170722182344 68 173 8.0 11.0 0.02 0.02 0.02 100 1009.2
20170722181850 68 170 8.0 10.0 0.02 0.02 0.02 100 1009.2
20170722181338 68 184 5.0 7.0 0.02 0.02 0.02 100 1009.2
20170722180848 68 193 4.0 7.0 0.02 0.02 0.02 100 1009.6
20170722180340 68 187 5.0 7.0 0.02 0.02 0.02 100 1008.8
20170722175340 69 177 4.0 10.0 0.02 0.02 0.00 100 1009.1
20170722174832 69 164 7.0 9.0 0.01 0.01 0.00 100 1009.1
20170722174341 69 156 2.0 5.0 0.01 0.01 0.00 100 1009.0
20170722173849 69 153 3.0 5.0 0.00 0.00 0.00 100 1009.6
20170722173400 69 152 1.0 3.0 0.00 0.00 0.00 100 1009.0
20170722172849 69 152 1.0 3.0 0.00 0.00 0.00 100 1009.1
20170722172350 69 152 1.0 4.0 0.00 0.00 0.00 100 1009.5
20170722171836 69 152 2.0 5.0 0.00 0.00 0.00 100 1009.0
20170722171422 69 152 1.0 6.0 0.00 0.00 0.00 100 1009.1
20170722165833 69 149 0.0 0.0 0.00 0.00 0.00 100 1009.6
20170722165340 69 149 2.0 0.0 0.00 0.00 0.00 100 1009.1
20170722164847 69 149 2.0 0.0 0.00 0.00 0.00 100 1009.1
20170722164334 69 149 3.0 0.0 0.00 0.00 0.00 100 1009.2
20170722163839 69 149 4.0 0.0 0.00 0.00 0.00 100 1008.8
20170722163350 69 149 3.0 0.0 0.00 0.00 0.00 100 1008.8
20170722162846 69 149 4.0 0.0 0.00 0.00 0.00 100 1008.9
20170722162333 69 149 5.0 0.0 0.00 0.00 0.00 100 1008.9
20170722161841 69 150 5.0 0.0 0.00 0.00 0.00 100 1009.5
20170722161330 69 242 5.0 0.0 0.00 0.00 0.00 100 1008.9
20170722160840 69 243 5.0 0.0 0.00 0.00 0.00 100 1009.4
20170722160351 70 243 5.0 0.0 0.00 0.00 0.00 100 1010.0
20170722155832 70 243 3.0 0.0 0.00 0.00 0.00 100 1009.8
20170722155340 70 243 2.0 0.0 0.00 0.00 0.00 100 1008.7
20170722154829 70 243 2.0 0.0 0.00 0.00 0.00 100 1009.9
20170722154340 70 243 0.0 0.0 0.00 0.00 0.00 100 1009.1
20170722153850 70 243 0.0 0.0 0.00 0.00 0.00 100 1009.3
20170722153359 70 243 1.0 0.0 0.00 0.00 0.00 100 1009.9
20170722152838 70 243 2.0 0.0 0.00 0.00 0.00 100 1009.0
20170722152330 70 243 3.0 0.0 0.00 0.00 0.00 100 1009.2
20170722151835 70 243 3.0 0.0 0.00 0.00 0.00 100 1009.1
20170722151347 70 243 3.0 0.0 0.00 0.00 0.00 100 1009.5
20170722150837 70 243 0.0 0.0 0.00 0.00 0.00 100 1009.6
20170722150347 70 243 0.0 0.0 0.00 0.00 0.00 100 1009.6
20170722145828 70 243 0.0 0.0 0.00 0.00 0.00 100 1009.6
20170722145339 70 243 0.0 0.0 0.00 0.00 0.00 100 1009.7
20170722144829 70 243 1.0 0.0 0.00 0.00 0.00 100 1009.0
20170722144339 69 243 3.0 0.0 0.00 0.00 0.00 100 1009.2
20170722143830 69 243 4.0 0.0 0.00 0.00 0.00 100 1009.9
20170722143400 69 242 2.0 0.0 0.00 0.00 0.00 100 1009.4
20170722142838 69 242 0.0 0.0 0.00 0.00 0.00 100 1009.5
20170722142349 69 243 0.0 0.0 0.00 0.00 0.00 100 1009.6
20170722141838 69 242 0.0 0.0 0.00 0.00 0.00 100 1009.7
20170722141346 69 242 0.0 0.0 0.00 0.00 0.00 100 1009.7
20170722140836 69 242 0.0 0.0 0.00 0.00 0.00 100 1009.6
20170722140345 69 242 1.0 0.0 0.00 0.00 0.00 100 1009.9
20170722135846 69 242 1.0 0.0 0.00 0.00 0.00 100 1010.0
20170722135334 69 242 2.0 0.0 0.00 0.00 0.00 100 1010.8
20170722134844 69 242 2.0 0.0 0.00 0.00 0.00 100 1009.8
20170722134334 69 242 0.0 0.0 0.00 0.00 0.00 100 1009.8
20170722133843 69 242 0.0 0.0 0.00 0.00 0.00 100 1009.4
20170722133349 68 242 1.0 0.0 0.00 0.00 0.00 100 1010.3
20170722132831 68 242 1.0 0.0 0.00 0.00 0.00 100 1010.0
20170722132339 68 242 0.0 0.0 0.00 0.00 0.00 100 1010.6
20170722131831 68 242 2.0 0.0 0.00 0.00 0.00 100 1009.9
20170722131340 68 26 5.0 0.0 0.00 0.00 0.00 100 1010.4
20170722130844 68 26 1.0 0.0 0.00 0.00 0.00 100 1009.7
20170722130348 68 26 1.0 0.0 0.00 0.00 0.00 100 1009.6
20170722125840 67 28 8.0 0.0 0.00 0.00 0.00 100 1009.2
20170722125345 67 32 4.0 0.0 0.00 0.00 0.00 100 1009.5
20170722124848 67 33 3.0 0.0 0.00 0.00 0.00 100 1009.9
20170722124330 67 244 1.0 0.0 0.00 0.00 0.00 100 1010.2
20170722123841 67 244 2.0 0.0 0.00 0.00 0.00 100 1009.7
20170722123349 67 243 3.0 0.0 0.00 0.00 0.00 100 1009.7
20170722122849 67 243 0.0 0.0 0.00 0.00 0.00 100 1010.2
20170722122337 67 243 0.0 0.0 0.00 0.00 0.00 100 1009.9
20170722121846 67 243 2.0 0.0 0.00 0.00 0.00 100 1010.1
20170722121336 66 243 0.0 0.0 0.00 0.00 0.00 100 1010.3
20170722120845 66 27 4.0 0.0 0.00 0.00 0.00 100 1010.1
20170722120348 66 27 0.0 0.0 0.00 0.00 0.00 100 1009.9
20170722115837 66 27 4.0 0.0 0.00 0.00 0.00 100 1009.7
20170722115400 66 27 0.0 0.0 0.00 0.00 0.00 100 1009.5
20170722114839 66 27 0.0 0.0 0.00 0.00 0.00 100 1009.9
20170722114343 66 27 0.0 0.0 0.00 0.00 0.00 100 1009.7
20170722113849 66 27 1.0 0.0 0.00 0.00 0.00 100 1010.1
20170722113352 66 25 2.0 0.0 0.00 0.00 0.00 100 1009.8
20170722112843 66 27 0.0 0.0 0.00 0.00 0.00 100 1009.3
20170722112344 66 22 2.0 0.0 0.00 0.00 0.00 100 1009.2
20170722111847 66 21 5.0 0.0 0.00 0.00 0.00 100 1009.7
20170722111348 66 0 3.0 0.0 0.00 0.00 0.00 100 1010.0
20170722110848 66 0 0.0 0.0 0.00 0.00 0.00 100 1009.8
20170722110406 66 0 0.0 0.0 0.00 0.00 0.00 100 1009.9
20170722105836 65 0 2.0 0.0 0.00 0.00 0.00 100 1010.3
20170722105340 65 0 0.0 0.0 0.00 0.00 0.00 100 1009.9
20170722104844 65 0 0.0 0.0 0.00 0.00 0.00 100 1009.4
20170722104346 66 0 0.0 0.0 0.00 0.00 0.00 100 1010.2
20170722103849 66 0 0.0 0.0 0.00 0.00 0.00 100 1009.6
20170722103350 66 0 0.0 0.0 0.00 0.00 0.00 100 1009.4
20170722102843 66 0 0.0 0.0 0.00 0.00 0.00 100 1009.4
20170722102344 66 0 0.0 0.0 0.00 0.00 0.00 100 1009.4
20170722101847 66 0 3.0 0.0 0.00 0.00 0.00 100 1009.5
20170722101328 66 234 0.0 0.0 0.00 0.00 0.00 100 1010.0
20170722100839 66 234 1.0 0.0 0.00 0.00 0.00 100 1009.9
20170722100352 66 234 0.0 0.0 0.00 0.00 0.00 100 1009.9
20170722095830 66 234 0.0 0.0 0.00 0.00 0.00 100 1010.3
20170722095340 66 234 0.0 0.0 0.00 0.00 0.00 100 1009.9
20170722094831 66 234 0.0 0.0 0.00 0.00 0.00 100 1010.1
20170722094335 66 234 3.0 0.0 0.00 0.00 0.00 100 1010.7
20170722093846 66 44 2.0 0.0 0.00 0.00 0.00 100 1010.0
20170722093351 66 44 0.0 0.0 0.00 0.00 0.00 100 1009.6
20170722092844 66 43 1.0 0.0 0.00 0.00 0.00 100 1009.7
20170722092343 66 43 3.0 0.0 0.00 0.00 0.00 100 1009.5
20170722091847 66 43 2.0 0.0 0.00 0.00 0.00 100 1009.8
20170722091350 66 43 2.0 0.0 0.00 0.00 0.00 100 1010.2
20170722090854 66 54 0.0 0.0 0.00 0.00 0.00 100 1010.0
20170722090354 66 54 4.0 0.0 0.00 0.00 0.00 100 1010.2
20170722085848 66 54 1.0 0.0 0.00 0.00 0.00 100 1010.2
20170722085347 65 54 1.0 0.0 0.00 0.00 0.00 100 1010.4
20170722084848 65 54 2.0 0.0 0.00 0.00 0.00 100 1010.3
20170722084348 65 54 0.0 0.0 0.00 0.00 0.00 100 1010.1
20170722083847 65 54 3.0 0.0 0.00 0.00 0.00 100 1010.4
20170722083410 65 54 1.0 0.0 0.00 0.00 0.00 100 1010.4
20170722082838 65 54 0.0 0.0 0.00 0.00 0.00 100 1010.6
20170722082341 65 54 1.0 0.0 0.00 0.00 0.00 100 1010.8
20170722081849 65 54 1.0 0.0 0.00 0.00 0.00 100 1010.3
20170722081351 65 54 1.0 0.0 0.00 0.00 0.00 100 1010.3
20170722080854 65 54 0.0 0.0 0.00 0.00 0.00 100 1010.7
20170722080356 65 54 1.0 0.0 0.00 0.00 0.00 100 1010.5
20170722075848 65 54 0.0 0.0 0.00 0.00 0.00 100 1010.2
20170722075351 65 54 0.0 0.0 0.00 0.00 0.00 100 1010.6
20170722074856 65 54 0.0 0.0 0.00 0.00 0.00 100 1010.9
20170722074339 65 54 0.0 0.0 0.00 0.00 0.00 100 1010.6
20170722073844 65 54 0.0 0.0 0.00 0.00 0.00 100 1010.8
20170722073401 65 54 0.0 0.0 0.00 0.00 0.00 100 1011.0
20170722072854 65 54 0.0 0.0 0.00 0.00 0.00 100 1010.6
20170722072338 65 54 0.0 0.0 0.00 0.00 0.00 100 1011.0
20170722071841 65 54 0.0 0.0 0.00 0.00 0.00 100 1010.5
20170722071345 65 54 1.0 0.0 0.00 0.00 0.00 100 1010.7
20170722070849 65 54 0.0 0.0 0.00 0.00 0.00 100 1010.3
20170722070350 65 54 0.0 0.0 0.00 0.00 0.00 100 1010.3
20170722065841 65 54 1.0 0.0 0.00 0.00 0.00 100 1010.4
20170722065344 65 54 0.0 0.0 0.00 0.00 0.00 100 1010.4